When you browse on this site, cookies collect data to enhance your experience and personalize the content and advertising you see.
Visit our Privacy Policy to learn more. By continuing to use the site, you agree to this use of cookies and data.
  • In Österreich
  • Länderverzeichnis
  • Für 7 Tage
  • Wassertemperatur
  • Wetterkarte
  • News
  • Widgets
  • user-avatar
    Anmelden

    Stündliche Wetter Hlushka

    Heute, 31 Mai, Sonntag

    Zeit Temperatur Niederschläge Wind Luftdruck Luftfeuchtigkeit
    00:00 +8°C° 1.9 mm 6 m/S 726 mmHg 100%
    01:00 +8°C° 2.1 mm 7 m/S 725 mmHg 100%
    02:00 +8°C° 0 mm 7 m/S 726 mmHg 94%
    03:00 +8°C° 0.1 mm 7 m/S 725 mmHg 98%
    04:00 +6°C° 0.7 mm 7 m/S 725 mmHg 100%
    05:00 +6°C° 1.7 mm 8 m/S 725 mmHg 100%
    06:00 +6°C° 0.4 mm 8 m/S 725 mmHg 99%
    07:00 +6°C° 0.4 mm 8 m/S 724 mmHg 99%
    08:00 +6°C° 0.5 mm 8 m/S 724 mmHg 99%
    09:00 +6°C° 0.9 mm 8 m/S 725 mmHg 98%
    10:00 +7°C° 0 mm 8 m/S 725 mmHg 96%
    11:00 +8°C° 0 mm 7 m/S 726 mmHg 97%
    12:00 +8°C° 0 mm 6 m/S 726 mmHg 99%
    13:00 +8°C° 0.1 mm 6 m/S 726 mmHg 100%
    14:00 +8°C° 0.1 mm 5 m/S 726 mmHg 100%
    15:00 +10°C° 0.2 mm 5 m/S 727 mmHg 99%
    16:00 +10°C° 0.8 mm 5 m/S 726 mmHg 98%
    17:00 +13°C° 0.2 mm 5 m/S 727 mmHg 98%
    18:00 +13°C° 0.1 mm 3 m/S 727 mmHg 98%
    19:00 +13°C° 0.6 mm 2 m/S 727 mmHg 99%
    20:00 +14°C° 0.2 mm 2 m/S 728 mmHg 98%
    21:00 +12°C° 0 mm 3 m/S 728 mmHg 97%
    22:00 +12°C° 0 mm 3 m/S 728 mmHg 98%
    23:00 +11°C° 0 mm 3 m/S 728 mmHg 99%

    Morgen, 1 Juni, Montag

    Zeit Temperatur Niederschläge Wind Luftdruck Luftfeuchtigkeit
    00:00 +12°C° 0 mm 2 m/S 728 mmHg 98%
    01:00 +12°C° 0 mm 2 m/S 728 mmHg 99%
    02:00 +10°C° 0 mm 3 m/S 728 mmHg 100%
    03:00 +10°C° 0 mm 3 m/S 728 mmHg 100%
    04:00 +10°C° 0 mm 4 m/S 728 mmHg 100%
    05:00 +10°C° 0 mm 5 m/S 729 mmHg 99%
    06:00 +10°C° 0 mm 6 m/S 729 mmHg 98%
    07:00 +10°C° 0 mm 6 m/S 729 mmHg 97%
    08:00 +10°C° 0 mm 6 m/S 730 mmHg 97%
    09:00 +11°C° 0 mm 7 m/S 730 mmHg 94%
    10:00 +12°C° 0 mm 7 m/S 731 mmHg 91%
    11:00 +12°C° 0 mm 7 m/S 731 mmHg 89%
    12:00 +14°C° 0 mm 7 m/S 731 mmHg 87%
    13:00 +14°C° 0 mm 7 m/S 731 mmHg 83%
    14:00 +14°C° 0 mm 7 m/S 731 mmHg 80%
    15:00 +14°C° 0 mm 7 m/S 731 mmHg 82%
    16:00 +12°C° 0 mm 7 m/S 731 mmHg 82%
    17:00 +12°C° 0 mm 7 m/S 731 mmHg 81%
    18:00 +11°C° 0 mm 6 m/S 731 mmHg 83%
    19:00 +11°C° 0 mm 6 m/S 731 mmHg 85%
    20:00 +10°C° 0 mm 5 m/S 731 mmHg 88%
    21:00 +9°C° 0 mm 6 m/S 731 mmHg 92%
    22:00 +9°C° 0 mm 5 m/S 731 mmHg 90%
    23:00 +8°C° 0 mm 5 m/S 731 mmHg 94%

    übermorgen, 2 Juni, Dienstag

    Zeit Temperatur Niederschläge Wind Luftdruck Luftfeuchtigkeit
    00:00 +7°C° 0 mm 5 m/S 731 mmHg 96%
    01:00 +7°C° 0 mm 5 m/S 730 mmHg 97%
    02:00 +6°C° 0 mm 5 m/S 730 mmHg 98%
    03:00 +6°C° 0 mm 5 m/S 729 mmHg 99%
    04:00 +5°C° 0 mm 5 m/S 729 mmHg 99%
    05:00 +4°C° 0 mm 6 m/S 729 mmHg 100%
    06:00 +5°C° 0 mm 6 m/S 728 mmHg 99%
    07:00 +7°C° 0 mm 6 m/S 729 mmHg 98%
    08:00 +8°C° 0 mm 7 m/S 728 mmHg 98%
    09:00 +9°C° 0.1 mm 7 m/S 728 mmHg 97%
    10:00 +9°C° 0 mm 7 m/S 729 mmHg 95%
    11:00 +11°C° 0 mm 8 m/S 728 mmHg 92%
    12:00 +11°C° 0.6 mm 6 m/S 728 mmHg 91%
    13:00 +12°C° 0.1 mm 8 m/S 727 mmHg 87%
    14:00 +12°C° 0.3 mm 7 m/S 727 mmHg 85%
    15:00 +10°C° 3.7 mm 7 m/S 726 mmHg 93%
    16:00 +11°C° 0.5 mm 8 m/S 726 mmHg 92%
    17:00 +11°C° 0 mm 8 m/S 725 mmHg 89%
    18:00 +11°C° 0.2 mm 7 m/S 725 mmHg 92%
    19:00 +9°C° 0.5 mm 7 m/S 725 mmHg 95%
    20:00 +10°C° 0.1 mm 3 m/S 725 mmHg 99%
    21:00 +10°C° 0 mm 4 m/S 725 mmHg 96%
    22:00 +10°C° 0 mm 3 m/S 724 mmHg 99%
    23:00 +9°C° 1.8 mm 2 m/S 724 mmHg 100%

    3 Juni, Mittwoch

    Zeit Temperatur Niederschläge Wind Luftdruck Luftfeuchtigkeit
    00:00 +9°C° 0.3 mm 2 m/S 725 mmHg 100%
    01:00 +9°C° 0 mm 2 m/S 724 mmHg 99%
    02:00 +10°C° 0 mm 1 m/S 724 mmHg 99%
    03:00 +9°C° 0 mm 1 m/S 724 mmHg 100%
    04:00 +9°C° 0 mm 1 m/S 724 mmHg 100%
    05:00 +9°C° 0 mm 1 m/S 724 mmHg 100%
    06:00 +10°C° 0 mm 1 m/S 724 mmHg 100%
    07:00 +9°C° 0 mm 2 m/S 725 mmHg 98%
    08:00 +10°C° 0 mm 2 m/S 725 mmHg 98%
    09:00 +12°C° 0 mm 2 m/S 725 mmHg 98%
    10:00 +12°C° 0 mm 3 m/S 725 mmHg 92%
    11:00 +13°C° 0.1 mm 4 m/S 725 mmHg 92%
    12:00 +15°C° 0.1 mm 2 m/S 725 mmHg 88%
    13:00 +14°C° 0.5 mm 3 m/S 725 mmHg 86%
    14:00 +15°C° 0 mm 4 m/S 725 mmHg 84%
    15:00 +15°C° 0.3 mm 5 m/S 725 mmHg 87%
    16:00 +16°C° 0.2 mm 3 m/S 724 mmHg 82%
    17:00 +16°C° 0 mm 2 m/S 725 mmHg 85%
    18:00 +16°C° 0 mm 3 m/S 725 mmHg 83%
    19:00 +13°C° 0.1 mm 3 m/S 725 mmHg 93%
    20:00 +14°C° 0 mm 1 m/S 725 mmHg 96%
    21:00 +13°C° 0 mm 2 m/S 725 mmHg 99%
    22:00 +13°C° 0 mm 2 m/S 725 mmHg 99%
    23:00 +11°C° 0 mm 3 m/S 725 mmHg 99%

    4 Juni, Donnerstag

    Zeit Temperatur Niederschläge Wind Luftdruck Luftfeuchtigkeit
    00:00 +10°C° 0 mm 2 m/S 726 mmHg 100%
    01:00 +11°C° 0 mm 1 m/S 725 mmHg 100%
    02:00 +10°C° 0 mm 1 m/S 726 mmHg 100%
    03:00 +10°C° 0 mm 1 m/S 726 mmHg 100%
    04:00 +10°C° 0 mm 1 m/S 726 mmHg 100%
    05:00 +10°C° 0 mm 1 m/S 726 mmHg 100%
    06:00 +11°C° 0 mm 1 m/S 726 mmHg 100%
    07:00 +12°C° 0 mm 2 m/S 727 mmHg 98%
    08:00 +13°C° 0 mm 2 m/S 727 mmHg 96%
    09:00 +14°C° 0 mm 3 m/S 727 mmHg 92%
    10:00 +16°C° 0 mm 3 m/S 727 mmHg 89%
    11:00 +16°C° 0 mm 3 m/S 727 mmHg 87%
    12:00 +18°C° 0 mm 4 m/S 727 mmHg 85%
    13:00 +18°C° 0.2 mm 4 m/S 727 mmHg 84%
    14:00 +18°C° 0.4 mm 4 m/S 727 mmHg 87%
    15:00 +17°C° 0.2 mm 5 m/S 727 mmHg 86%
    16:00 +17°C° 0.2 mm 5 m/S 727 mmHg 82%
    17:00 +19°C° 0 mm 3 m/S 727 mmHg 82%
    18:00 +19°C° 0 mm 3 m/S 727 mmHg 79%
    19:00 +19°C° 0 mm 1 m/S 727 mmHg 87%
    20:00 +17°C° 0 mm 0 m/S 727 mmHg 83%
    21:00 +17°C° 0 mm 2 m/S 727 mmHg 89%
    22:00 +16°C° 0 mm 2 m/S 727 mmHg 94%
    23:00 +14°C° 0 mm 3 m/S 726 mmHg 98%

    5 Juni, Freitag

    Zeit Temperatur Niederschläge Wind Luftdruck Luftfeuchtigkeit
    00:00 +14°C° 0 mm 3 m/S 726 mmHg 100%
    01:00 +13°C° 0 mm 3 m/S 725 mmHg 100%
    02:00 +13°C° 0 mm 3 m/S 724 mmHg 98%
    03:00 +13°C° 0 mm 3 m/S 724 mmHg 96%
    04:00 +13°C° 0.6 mm 4 m/S 723 mmHg 99%
    05:00 +13°C° 0.7 mm 5 m/S 722 mmHg 100%
    06:00 +14°C° 0 mm 5 m/S 722 mmHg 97%
    07:00 +16°C° 0 mm 5 m/S 723 mmHg 94%
    08:00 +17°C° 0 mm 7 m/S 723 mmHg 92%
    09:00 +17°C° 0 mm 9 m/S 724 mmHg 90%
    10:00 +17°C° 0 mm 8 m/S 725 mmHg 91%
    11:00 +17°C° 0 mm 8 m/S 726 mmHg 88%
    12:00 +17°C° 0 mm 8 m/S 726 mmHg 88%
    13:00 +18°C° 0 mm 8 m/S 727 mmHg 84%
    14:00 +18°C° 0 mm 8 m/S 727 mmHg 79%
    15:00 +18°C° 0 mm 7 m/S 727 mmHg 81%
    16:00 +19°C° 0 mm 6 m/S 727 mmHg 82%
    17:00 +19°C° 0 mm 5 m/S 728 mmHg 83%
    18:00 +19°C° 0 mm 4 m/S 728 mmHg 83%
    19:00 +18°C° 0 mm 2 m/S 728 mmHg 87%
    20:00 +17°C° 0 mm 3 m/S 729 mmHg 93%
    21:00 +15°C° 0.6 mm 0 m/S 729 mmHg 98%
    22:00 +15°C° 0.1 mm 1 m/S 729 mmHg 98%
    23:00 +15°C° 0.3 mm 1 m/S 730 mmHg 98%
    Mehr zeigen